SCP
0 0 0 0 0 0 0 0 0 0 0 0 0 0 0 1 1 0 0 0 1 1 1 1 1 1 1 1 1 2 1 1 1 1 1 2 2 2 2 1 1 1 1 1
0 0 0 0 0 0 0 0 0 0 0 0 0 0 1 1 1 0 0 0 1 1 1 1 1 1 1 1 1 2 2 1 2 2 2 2 2 2 1 1 1 1 1 1
0 0 0 0 0 0 0 0 0 0 0 0 0 0 1 1 1 0 0 0 0 0 1 1 1 1 1 1 1 2 2 2 2 2 2 2 2 2 1 1 1 1 1 1
0 0 0 0 0 0 0 0 0 0 0 0 0 0 0 0 1 0 0 0 0 0 0 0 0 1 1 1 1 2 2 2 2 2 2 1 1 2 2 2 2 1 1 1
0 0 0 0 0 0 0 0 0 0 0 0 0 0 0 0 0 0 0 0 0 0 0 0 0 0 0 1 1 1 1 1 1 1 1 1 1 2 2 2 2 2 2 1
0 0 0 0 0 0 0 0 0 0 0 0 0 0 0 0 0 0 0 0 0 0 0 0 0 0 0 0 1 1 1 1 1 1 1 1 1 2 2 2 2 2 2 2
0 0 0 0 0 0 0 0 0 0 0 0 0 0 0 0 0 0 0 0 0 0 0 0 0 0 0 0 0 0 0 0 0 0 1 1 1 2 2 2 1 2 2 2
0 0 0 0 0 0 0 0 0 0 0 0 0 0 0 0 0 0 0 0 0 0 0 0 0 0 0 0 0 1 0 0 0 0 1 1 1 1 1 1 1 1 1 1
0 0 0 0 0 0 0 0 0 0 0 0 0 0 0 0 0 0 0 0 0 0 0 0 0 0 0 0 0 1 1 1 1 1 1 1 1 1 1 1 1 1 1 1
0 0 0 0 0 0 0 0 0 0 0 0 0 0 0 0 0 0 0 0 0 0 0 0 0 0 0 0 0 0 1 1 1 1 1 1 1 1 1 1 0 0 0 0
0 0 0 0 0 0 0 0 0 0 0 0 0 0 0 0 0 0 0 0 0 0 0 0 0 0 0 0 0 0 0 1 1 1 1 1 1 1 1 1 0 0 0 0
0 0 0 0 0 0 0 0 0 0 0 0 0 0 0 0 0 0 0 0 0 0 0 0 0 0 0 0 0 0 0 0 1 1 1 1 1 1 1 0 0 0 0 0
0 0 0 0 0 0 0 0 0 0 0 0 0 0 0 0 0 0 0 0 0 0 0 0 0 0 0 0 0 0 0 1 1 1 1 1 1 2 1 0 0 0 0 0
0 0 0 0 0 0 0 0 0 0 0 0 0 0 0 0 0 0 0 0 0 0 0 0 0 0 0 0 0 0 1 1 0 0 1 1 1 1 1 0 0 0 0 0
0 0 0 0 0 0 0 0 0 0 0 0 0 0 0 0 0 0 0 0 0 0 0 0 0 0 0 0 0 1 1 0 0 0 0 1 1 1 0 0 0 0 0 0
0 0 0 0 0 0 0 0 0 0 0 0 0 0 0 0 0 0 0 0 0 0 0 0 0 0 0 0 0 1 0 0 0 0 0 0 0 0 0 0 0 0 0 0
0 0 0 0 0 0 0 0 0 0 0 0 0 0 0 0 0 0 0 0 0 0 0 0 0 0 0 0 0 0 0 0 0 0 0 0 0 0 0 0 0 0 0 0
0 0 0 0 0 0 0 0 0 0 0 0 0 0 0 0 0 0 0 0 0 0 0 0 0 0 0 0 0 0 0 0 0 0 0 0 0 0 0 0 0 0 0 0
0 0 0 0 0 0 0 0 0 0 0 0 0 0 0 0 0 0 0 0 0 0 0 0 0 0 0 0 0 0 0 0 0 0 0 0 0 0 0 0 0 0 0 0
0 0 0 0 0 0 0 0 0 0 0 0 0 0 0 0 0 0 0 0 0 0 0 0 0 0 0 0 0 0 0 0 0 0 0 0 0 0 0 0 0 0 0 0
0 0 0 0 0 0 0 0 0 0 0 0 0 0 0 0 0 0 0 0 0 0 0 0 0 0 0 0 0 0 0 0 0 0 0 0 0 0 0 0 0 0 0 0
0 0 0 0 0 0 0 0 0 0 0 0 0 0 0 0 0 0 0 0 0 0 0 0 0 0 0 0 0 0 0 0 0 0 0 0 0 0 0 0 0 0 0 0
0 0 0 0 0 0 0 0 0 0 0 0 0 0 0 0 0 0 0 0 0 0 0 0 0 0 0 0 0 0 0 0 0 0 0 0 0 0 0 0 0 0 0 0
0 0 0 0 0 0 0 0 0 0 0 0 0 0 0 0 0 0 0 0 0 0 0 0 0 0 0 0 0 0 0 0 0 0 0 0 0 0 0 0 0 0 0 0
0 0 0 0 0 0 0 0 0 0 0 0 0 0 0 0 0 0 0 0 0 0 0 0 0 0 0 0 0 0 0 0 0 0 0 0 0 0 0 0 0 0 0 0
0 0 0 0 0 0 0 0 0 0 0 0 0 0 0 0 0 0 0 0 0 0 0 0 0 0 0 0 0 0 0 0 0 0 0 0 0 0 0 0 0 0 0 0
Wind_Speed
2 3 3 3 4 5 5 5 5 6 5 5 8 9 7 6 6 7 6 6 6 7 8 7 8 9 8 9 9 9 9 9 8 6 7 7 7 6 6 6 8 9 9 10
3 3 4 4 4 4 5 5 5 3 2 3 5 6 5 4 6 6 5 5 5 6 6 6 7 8 8 9 10 10 9 9 9 8 7 5 6 5 5 5 7 9 10 10
1 1 1 3 3 3 4 5 4 3 3 3 3 2 1 1 2 3 3 3 4 5 6 6 8 8 7 8 8 8 10 10 10 10 6 5 4 4 5 6 6 8 9 9
1 2 3 3 2 3 2 3 3 3 2 1 1 1 2 0 2 2 1 1 1 2 3 5 6 6 6 6 6 7 8 9 9 9 8 10 8 7 8 6 6 7 8 9
0 1 1 2 3 3 2 3 2 2 1 0 2 0 2 2 1 2 2 2 2 2 1 3 4 5 4 5 5 5 6 7 8 9 9 10 8 7 5 6 7 7 7 8
2 2 3 3 3 2 2 2 2 2 1 1 2 0 3 5 6 6 4 3 2 1 0 1 2 3 3 3 4 4 5 6 7 8 10 10 10 9 8 8 8 7 5 5
1 0 1 2 2 0 1 2 1 1 1 2 2 1 4 7 8 6 5 5 4 3 2 2 3 3 2 2 3 4 5 6 7 8 9 10 10 10 11 10 9 8 6 5
0 1 2 3 2 2 1 3 3 1 2 2 1 2 5 6 7 6 5 5 5 5 4 4 3 3 2 1 1 2 4 5 5 6 7 7 8 7 7 8 7 7 6 6
0 1 2 2 2 2 1 1 2 1 1 1 2 2 4 7 9 10 9 9 8 7 5 4 4 4 3 2 1 1 2 2 2 3 4 5 6 6 7 7 7 6 6 6
1 0 2 2 1 1 2 1 1 0 0 3 3 2 3 7 10 11 11 11 9 8 7 6 5 4 3 2 2 1 1 1 1 2 2 2 4 5 5 6 7 7 7 8
1 1 1 1 2 3 1 1 1 1 2 1 2 3 4 4 6 8 10 10 9 9 8 7 5 5 4 4 4 3 3 2 1 0 1 2 2 3 5 5 7 7 8 9
1 1 1 1 1 2 2 2 2 1 2 1 1 3 3 4 6 7 8 8 8 8 8 7 7 6 6 6 5 4 3 3 2 1 1 1 2 3 4 4 6 7 8 8
2 2 1 2 3 1 1 1 1 2 1 0 1 3 3 4 6 7 7 8 8 8 9 9 8 7 7 6 6 5 4 4 3 2 1 1 1 2 3 4 5 6 8 8
2 0 1 1 2 1 1 1 1 0 1 1 1 2 0 4 6 7 7 7 7 8 9 9 8 8 7 6 6 5 5 4 4 2 1 1 1 2 2 3 4 5 7 7
0 1 1 1 2 1 2 2 2 2 2 2 1 1 2 3 5 5 6 6 7 8 9 9 9 8 8 7 6 6 5 5 4 2 2 1 1 1 2 3 4 5 5 6
1 1 1 0 1 1 2 4 4 3 3 3 3 3 2 2 3 4 5 6 7 8 9 9 8 8 8 8 7 6 6 5 4 3 2 1 1 1 2 3 4 5 5 6
2 2 1 1 1 3 3 3 4 3 3 4 4 1 1 2 3 4 5 5 6 8 8 9 9 8 8 8 7 7 6 5 4 3 2 2 1 1 2 2 4 5 5 6
3 3 1 1 1 3 2 1 2 3 3 3 2 1 1 2 2 3 4 5 6 8 9 9 8 8 8 7 7 6 5 5 4 3 3 2 2 1 2 3 4 4 5 5
1 3 2 2 2 4 2 3 3 3 2 3 3 2 1 1 1 1 4 5 6 8 8 8 8 8 8 7 7 6 5 5 4 4 4 3 2 2 3 3 4 4 5 5
2 2 2 3 3 4 2 4 2 3 3 3 4 3 1 1 2 1 4 6 6 7 7 7 7 8 7 7 7 6 5 5 5 5 5 4 3 3 4 4 4 4 4 5
5 4 5 5 5 5 2 4 5 5 1 5 4 3 3 2 2 3 4 5 6 6 7 7 7 7 7 8 7 6 6 6 6 6 5 4 3 3 4 3 3 4 4 4
7 7 7 6 6 5 6 7 6 1 4 5 4 3 3 2 2 3 4 5 6 6 7 7 6 7 7 7 6 6 6 7 6 6 5 4 4 3 3 3 3 4 5 5
7 6 4 6 4 2 6 5 2 3 4 4 4 3 3 2 2 3 4 4 5 6 6 6 6 7 6 7 6 6 6 6 6 6 5 5 4 3 3 3 4 4 5 5
5 4 5 6 7 5 6 5 4 4 4 4 4 4 3 2 2 3 3 4 5 5 6 6 6 6 7 7 7 6 7 6 6 6 5 4 4 3 3 3 3 4 5 5
5 8 6 7 5 4 7 9 8 6 5 5 4 3 3 2 3 3 3 4 4 5 5 5 6 6 7 7 7 7 7 6 6 6 5 5 4 3 3 3 3 5 5 5
9 10 10 8 8 7 6 8 10 9 7 7 5 4 3 3 3 3 4 4 4 5 5 5 6 6 7 7 7 7 7 6 6 5 5 4 3 3 3 2 3 4 5 6
Wind_Direction
196 214 228 251 245 265 268 261 260 271 267 233 233 243 240 224 218 220 220 215 222 220 223 212 195 195 198 206 208 210 209 200 189 191 191 187 188 189 194 200 202 202 202 200
191 224 263 271 260 254 252 257 271 296 288 244 238 252 244 222 225 227 219 205 217 226 224 204 189 191 203 208 206 206 210 209 202 201 197 190 180 183 189 196 203 202 201 200
216 310 273 237 234 226 247 258 266 279 303 269 238 259 249 213 227 221 217 210 215 226 220 202 192 197 201 212 211 209 206 208 206 200 187 175 171 171 183 193 198 203 200 200
275 286 256 244 255 255 274 284 258 258 256 6 298 313 12 3 187 185 205 231 238 240 220 205 200 197 205 213 213 217 216 214 211 198 194 194 196 200 200 193 194 195 197 196
302 299 296 302 311 281 273 288 265 264 274 278 317 199 35 44 50 5 355 341 326 296 215 193 196 192 204 211 213 216 224 219 217 208 207 210 212 212 202 192 192 193 193 194
276 284 301 309 307 264 249 233 238 234 235 67 351 315 52 28 358 347 348 353 351 354 83 146 137 145 174 197 210 209 216 219 220 217 213 214 216 208 202 201 198 194 189 188
22 89 337 293 290 125 257 270 217 171 136 63 8 29 50 14 358 347 350 6 14 29 44 59 93 111 132 157 197 210 213 217 218 217 216 214 214 210 209 207 202 193 186 187
348 62 12 343 324 340 357 321 333 1 71 78 42 52 52 25 20 23 30 37 33 36 35 42 57 75 79 85 183 204 211 213 216 218 217 211 212 209 209 208 201 195 192 186
252 37 21 343 328 314 314 33 338 358 71 94 76 80 77 35 36 38 44 45 39 38 38 41 45 48 47 38 0 290 224 194 201 214 210 208 208 208 205 200 196 194 186 169
303 301 355 335 254 56 345 345 277 290 57 100 91 60 25 12 20 27 33 34 33 31 31 31 33 32 22 20 25 38 84 126 182 207 210 212 208 203 199 190 188 182 174 166
251 224 17 47 20 6 15 42 19 43 347 347 121 80 32 22 23 25 25 25 24 23 23 25 27 28 27 27 27 30 38 46 47 328 229 211 202 194 191 184 180 174 170 169
199 266 66 22 352 316 327 356 328 337 58 4 88 85 56 46 39 30 24 22 23 24 27 29 31 34 33 27 23 23 21 24 20 351 260 221 191 183 184 177 171 167 167 167
165 200 179 158 160 145 6 15 357 19 50 28 147 113 91 44 32 27 24 21 22 25 29 32 31 28 24 19 16 13 13 11 7 359 313 194 178 182 185 173 168 167 163 162
154 127 306 356 38 19 302 315 305 237 216 159 181 145 93 5 10 13 18 19 21 25 25 27 25 22 18 13 9 7 7 7 3 354 336 303 206 191 181 168 168 169 167 164
211 121 79 2 330 293 287 273 248 231 251 238 194 235 303 348 352 359 8 15 21 23 20 18 15 12 10 7 4 2 360 1 356 347 337 318 303 168 165 169 169 167 169 167
103 143 156 327 13 292 279 269 246 240 233 231 246 277 359 1 355 2 10 15 19 16 12 8 7 4 2 360 356 352 351 351 347 341 333 333 304 202 181 177 171 168 170 169
149 163 202 224 335 276 258 251 219 205 212 225 240 270 60 352 354 357 359 12 17 7 0 358 357 356 352 349 344 343 341 343 345 341 337 325 286 232 209 187 179 178 177 174
159 159 187 276 265 239 77 59 219 208 222 230 254 295 308 335 355 9 14 11 6 358 351 349 347 346 344 342 339 337 338 339 338 335 330 318 289 248 218 203 198 193 184 182
220 188 187 223 256 264 212 188 187 202 219 213 221 235 316 358 270 62 34 8 355 348 344 341 340 337 337 340 338 333 334 335 330 327 320 307 280 248 225 216 211 202 194 193
114 202 208 203 243 246 136 139 161 209 219 175 195 199 192 228 263 31 17 350 345 346 346 342 338 338 340 340 336 332 332 330 326 323 317 310 291 261 241 229 219 211 202 201
173 188 208 216 243 262 137 144 169 211 118 148 180 182 184 222 318 349 336 338 342 341 341 341 339 341 342 339 336 333 331 329 328 321 313 303 288 269 254 238 224 210 202 196
193 187 196 200 221 234 144 162 199 189 104 150 164 172 187 221 294 312 323 330 335 337 341 342 340 339 340 341 338 331 328 328 325 317 310 303 291 276 254 235 223 212 202 199
215 212 205 212 222 67 170 191 167 143 158 165 172 174 181 216 267 301 310 321 330 336 339 339 336 334 338 342 338 329 327 325 320 315 310 304 295 279 253 233 223 214 208 209
210 203 220 239 239 217 204 199 182 175 170 163 166 170 184 224 267 288 301 314 323 330 333 332 330 329 332 337 335 328 324 321 315 312 311 305 292 278 252 235 225 220 214 213
198 179 209 236 232 208 215 206 191 175 164 158 160 173 194 223 259 281 291 301 311 317 321 323 322 321 323 328 329 329 325 321 316 312 310 307 296 284 265 245 235 232 233 231
192 190 194 216 197 192 193 186 180 175 177 177 174 183 201 224 252 273 284 294 300 304 309 312 315 316 318 321 323 326 327 320 313 309 311 308 304 297 284 271 271 251 251 254